Погода в Ферапонтове

Россия / Вологодская область     59°57′15″N   38°34′13″E
темп.,
°C
ветер,
м/с
пор.,
м/с
влажн.,
%
обл.,
%
осадки,
мм/ч
давл.,
гПа
погр.,
м
9 марта, вт
вт900:00−21с379897 0.0 1013182
03:00−25с259872 0.0 1016104
06:00−27с269834 0.0 1017136
09:00−26с369417 0.0 1019276
12:00−22с359276 0.0 1020395
15:00−19с368984 0.0 1021519
18:00−22с249494 0.0 102391
21:00−25с279647 0.0 1025132
10 марта, ср
ср1000:00−27ссв23970 0.0 102632
03:00−28ссз22970 0.0 102719
06:00−28сз22970 0.0 102822
09:00−23зсз259119 0.0 1028156
12:00−18зсз369297 0.0 1027389
15:00−15зсз359198 0.1 1028508
18:00−17зсз2398100 0.0 102764
21:00−20сз239989 0.1 102967
11 марта, чт
чт1100:00−21сз23990 0.0 102928
03:00−21зсз22997 0.0 103023
06:00−22зсз23995 0.0 103034
09:00−18з249611 0.0 1030144
12:00−12з249044 0.0 1029289
15:00−8зюз248945 0.0 1028534
18:00−11юз259596 0.0 1026107
21:00−16ююз389757 0.0 1026154
12 марта, пт
пт1200:00−17ююз3109626 0.0 1025219
03:00−18ююз399213 0.0 1024208
06:00−19ююз39930 0.0 1023227
09:00−17ююз48910 0.0 1022260
12:00−11ю49890 0.0 1021349
15:00−9ю510860 0.0 1019436
18:00−11ю513860 0.0 1018475
21:00−11ю515896 0.0 1017586
13 марта, сб
сб1300:00−11ю5149195 0.0 1016643
03:00−11ю5139197 0.1 1014615
06:00−10ю61390100 0.1 1013717
09:00−9ю61289100 0.1 1013712
12:00−7ю61189100 0.1 1013756
15:00−6ю61192100 0.4 1012774
18:00−6ю51193100 0.6 1011717
21:00−6ю41094100 0.8 1010492